This is the latest recevied weather packets stored in our database for station/object KB9HUO. If no packets are shown the sender has not sent any weather packets the latest 10 day(s).
| Time | Temp. | Humidity | Pressure | Rain* | Wind** | Luminosity | Snow |
|---|---|---|---|---|---|---|---|
| 1778076225 | 10.56° C | 77% | 1015 hPa | 0 mm | - | 133 W/m² | - |
| 1778075922 | 10.56° C | 77% | 1014.5 hPa | 0 mm | - | 121 W/m² | - |
| 1778075618 | 10.56° C | 76% | 1014.6 hPa | 0 mm | - | 123 W/m² | - |
| 1778075315 | 10.56° C | 77% | 1014.6 hPa | 0 mm | - | 172 W/m² | - |
| 1778075011 | 10.56° C | 80% | 1014.2 hPa | 0 mm | - | 157 W/m² | - |
| 1778074708 | 10° C | 81% | 1014.6 hPa | 0 mm | - | 155 W/m² | - |
| 1778074405 | 10° C | 79% | 1014.2 hPa | 0 mm | - | 115 W/m² | - |
| 1778074102 | 10° C | 82% | 1014.1 hPa | 0 mm | - | 109 W/m² | - |
| 1778073799 | 9.44° C | 81% | 1014.2 hPa | 0 mm | - | 95 W/m² | - |
| 1778073497 | 9.44° C | 80% | 1013.8 hPa | 0 mm | - | 104 W/m² | - |
| 1778073193 | 9.44° C | 81% | 1013.4 hPa | 0 mm | - | 106 W/m² | - |
| 1778072890 | 9.44° C | 81% | 1013.6 hPa | 0 mm | - | 102 W/m² | - |
| 1778072586 | 9.44° C | 84% | 1013.5 hPa | 0 mm | - | 97 W/m² | - |
| 1778072285 | 8.89° C | 83% | 1013.5 hPa | 0 mm | - | 80 W/m² | - |
| 1778071982 | 8.89° C | 83% | 1013.6 hPa | 0 mm | - | 85 W/m² | - |
| 1778071681 | 8.89° C | 84% | 1013.4 hPa | 0 mm | - | 86 W/m² | - |
| 1778071377 | 8.89° C | 86% | 1013.3 hPa | 0 mm | - | 56 W/m² | - |
| 1778071075 | 8.89° C | 87% | 1013.4 hPa | 0 mm | - | 49 W/m² | - |
| 1778070774 | 8.33° C | 87% | 1013.4 hPa | 0 mm | - | 82 W/m² | - |
| 1778070470 | 8.33° C | 88% | 1013.4 hPa | 0 mm | - | 59 W/m² | - |
| 1778070167 | 8.33° C | 89% | 1013.7 hPa | 0 mm | - | 47 W/m² | - |
| 1778069865 | 8.33° C | 89% | 1013.9 hPa | 0 mm | - | 36 W/m² | - |
| 1778069562 | 8.33° C | 89% | 1013.7 hPa | 0 mm | - | 39 W/m² | - |
| 1778069259 | 8.33° C | 89% | 1014.1 hPa | 0 mm | - | 35 W/m² | - |
| 1778068957 | 8.33° C | 90% | 1013.8 hPa | 0 mm | - | 34 W/m² | - |
* Rain latest hour (hover to see other rain measurements)
** Current wind speed in m/s (hover to see current wind gust speed)